Waarnemingen

Advertentie
Mijn weer
Socoa, Frankrijk (7600): temperatuur & dauwpunt: 16.02.2017 11:00:00 - 22.02.2017 11:00:00 (CET)Socoa, Frankrijk (7600): windsnelheid & windstoten: 16.02.2017 11:00:00 - 22.02.2017 11:00:00 (CET)Socoa, Frankrijk (7600): windrichting: 16.02.2017 11:00:00 - 22.02.2017 11:00:00 (CET)Socoa, Frankrijk (7600): luchtdruk: 16.02.2017 11:00:00 - 22.02.2017 11:00:00 (CET)Socoa, Frankrijk (7600): zicht: 16.02.2017 11:00:00 - 22.02.2017 11:00:00 (CET)Socoa, Frankrijk (7600): neerslag: 16.02.2017 11:00:00 - 22.02.2017 11:00:00 (CET)
Datum & Tijd tt [°C] td [°C] ff [km/u] ff [kn] fx [km/u] fx [kn] dd ppp [hPa] vv [km] rr [mm]
22.02.2017 11:00:00 8,6 7,1 7 4 16 9 ZZO 1024,7 - 0,0
22.02.2017 10:00:00 8,5 7,3 6 4 19 10 ZO 1024,7 - 0,0
22.02.2017 09:00:00 8,5 7,1 10 5 15 8 OZO 1024,6 - 0,0
22.02.2017 08:00:00 8,1 6,4 9 5 13 7 OZO 1024,3 - 0,0
22.02.2017 07:00:00 8,9 7,0 7 4 13 7 OZO 1024,2 14 0,0
22.02.2017 06:00:00 9,0 7,0 4 2 8 4 Z 1024,6 - 0,0
22.02.2017 05:00:00 8,9 7,0 4 2 8 5 Z 1024,7 - 0,0
22.02.2017 04:00:00 8,6 6,7 3 1 10 5 ZZO 1025,1 - 0,0
22.02.2017 03:00:00 8,2 6,5 4 2 11 6 Z 1025,7 - 0,0
22.02.2017 02:00:00 7,4 5,9 6 3 13 7 Z 1025,9 - 0,0
22.02.2017 01:00:00 7,2 6,1 6 4 10 5 ZZW 1026,3 - 0,0
22.02.2017 00:00:00 6,5 5,1 6 3 13 7 Z 1026,5 - 0,0
21.02.2017 23:00:00 7,0 5,8 9 5 11 6 Z 1026,4 - 0,0
21.02.2017 22:00:00 7,7 6,0 9 5 15 8 Z 1026,5 - 0,0
21.02.2017 21:00:00 8,7 6,8 12 6 14 8 Z 1026,4 - 0,0
21.02.2017 20:00:00 9,2 7,1 3 2 11 6 ZZO 1026,4 - 0,0
21.02.2017 19:00:00 10,9 7,8 5 3 10 5 NO 1026,3 25 0,0
21.02.2017 18:00:00 12,6 7,7 4 2 9 5 N 1025,9 - 0,0
21.02.2017 17:00:00 13,0 8,1 7 4 13 7 N 1026,1 - 0,0
21.02.2017 16:00:00 13,2 8,1 10 5 16 9 NNW 1026,3 20 0,0
21.02.2017 15:00:00 12,7 8,0 11 6 21 12 N 1026,9 - 0,0
21.02.2017 14:00:00 13,7 7,7 10 6 19 10 N 1027,6 - 0,0
21.02.2017 13:00:00 14,3 7,3 10 5 15 8 N 1028,5 - 0,0
21.02.2017 12:00:00 13,8 7,6 6 3 9 5 N 1028,8 - 0,0
21.02.2017 11:00:00 13,2 6,5 4 2 6 4 O 1028,8 - 0,0
21.02.2017 10:00:00 9,9 7,1 4 2 12 7 Z 1028,8 15 0,0
21.02.2017 09:00:00 6,3 5,7 10 5 13 7 ZZW 1028,9 - 0,0
21.02.2017 08:00:00 4,2 3,5 9 5 14 7 Z 1028,5 - 0,0
21.02.2017 07:00:00 4,7 4,0 10 5 14 8 Z 1028,1 15 0,0
21.02.2017 06:00:00 4,8 4,1 9 5 12 7 Z 1028,2 - 0,2
21.02.2017 05:00:00 5,1 4,2 12 6 15 8 Z 1028,3 - 0,0
21.02.2017 04:00:00 4,9 3,9 11 6 12 7 ZZW 1028,7 15 0,0
21.02.2017 03:00:00 5,2 4,0 5 3 9 5 ZW 1029,2 - 0,0
21.02.2017 02:00:00 5,6 4,2 4 2 12 6 ZW 1029,5 - 0,0
21.02.2017 01:00:00 6,1 4,7 6 4 10 6 ZZW 1029,6 20 0,0
21.02.2017 00:00:00 7,0 5,3 9 5 11 6 Z 1029,5 - 0,0
20.02.2017 23:00:00 7,2 5,7 8 4 14 8 Z 1029,5 - 0,0
20.02.2017 22:00:00 7,8 6,3 11 6 15 8 Z 1029,4 - 0,0
20.02.2017 21:00:00 8,3 6,6 4 2 5 3 ZZW 1029,4 - 0,0
20.02.2017 20:00:00 9,3 6,7 4 2 8 4 ZW 1029,1 - 0,0
20.02.2017 19:00:00 10,9 6,8 0 0 12 7 N 1028,7 - 0,0
20.02.2017 18:00:00 12,9 6,9 6 3 13 7 N 1028,7 - 0,0
20.02.2017 17:00:00 14,3 8,0 7 4 11 6 N 1028,4 - 0,0
20.02.2017 16:00:00 13,4 8,0 10 6 13 7 NNO 1028,7 15 0,0
20.02.2017 15:00:00 13,5 9,0 6 4 10 6 NO 1029,0 - 0,0
20.02.2017 14:00:00 12,9 8,8 6 4 13 7 NNW 1029,6 - 0,0
20.02.2017 13:00:00 12,5 9,1 12 7 20 11 NW 1030,1 - 0,0
20.02.2017 12:00:00 12,4 9,2 11 6 15 8 WNW 1030,1 - 0,0
20.02.2017 11:00:00 12,6 9,2 8 5 11 6 WNW 1030,1 - 0,0
20.02.2017 10:00:00 11,4 8,3 5 3 8 4 Z 1030,0 - 0,0
20.02.2017 09:00:00 10,4 8,5 2 1 8 5 W 1029,9 - 0,0
20.02.2017 08:00:00 10,3 8,4 8 4 9 5 Z 1029,3 - 0,0
20.02.2017 07:00:00 10,3 8,6 4 2 11 6 Z 1029,2 - 0,0
20.02.2017 06:00:00 10,4 8,8 4 2 9 5 Z 1029,0 - 0,0
20.02.2017 05:00:00 10,6 8,5 4 2 6 4 Z 1029,1 - 0,0
20.02.2017 04:00:00 10,9 8,5 3 1 16 8 OZO 1029,3 12 0,0
20.02.2017 03:00:00 11,1 8,3 10 5 18 10 N 1029,9 - 0,0
20.02.2017 02:00:00 11,0 9,9 7 4 10 5 WNW 1030,0 - 0,0
20.02.2017 01:00:00 10,4 9,2 7 4 11 6 WZW 1029,8 - 0,0
20.02.2017 00:00:00 10,3 9,1 6 3 10 5 WZW 1030,4 - 0,0
19.02.2017 23:00:00 10,0 9,1 6 3 10 5 W 1030,3 - 0,0
19.02.2017 22:00:00 10,0 8,9 6 4 9 5 W 1029,7 - 0,0
19.02.2017 21:00:00 11,0 9,7 7 4 12 7 W 1029,7 - 0,0
19.02.2017 20:00:00 10,7 9,1 4 2 12 6 WZW 1029,6 - 0,0
19.02.2017 19:00:00 11,5 9,9 8 4 11 6 NW 1029,3 12 0,0
19.02.2017 18:00:00 12,3 9,7 9 5 14 8 NW 1029,0 - 0,0
19.02.2017 17:00:00 14,2 10,4 6 4 14 7 WNW 1028,9 - 0,0
19.02.2017 16:00:00 14,3 10,9 10 5 19 10 WNW 1029,2 15 0,0
19.02.2017 15:00:00 13,3 10,7 16 8 26 14 NW 1029,2 - 0,0
19.02.2017 14:00:00 13,4 10,7 19 10 33 18 WNW 1029,3 - 0,0
19.02.2017 13:00:00 13,8 10,8 20 11 32 17 W 1029,4 10 0,0
19.02.2017 12:00:00 14,0 10,8 23 12 29 16 W 1029,5 - 0,0
19.02.2017 11:00:00 12,9 10,6 18 10 25 13 W 1029,3 - 0,0
19.02.2017 10:00:00 11,3 10,0 10 5 19 10 ZW 1028,9 - 0,0
19.02.2017 09:00:00 9,1 8,3 15 8 18 10 ZW 1028,3 - 0,0
19.02.2017 08:00:00 8,9 8,1 14 8 19 11 ZW 1027,5 - 0,0
19.02.2017 07:00:00 8,6 7,5 13 7 16 9 ZZW 1026,8 10 0,0
19.02.2017 06:00:00 9,4 8,5 9 5 17 9 ZW 1026,5 - 0,0
19.02.2017 05:00:00 10,5 9,9 12 7 16 9 W 1026,0 - 0,0
19.02.2017 04:00:00 8,2 7,0 9 5 16 8 ZW 1025,5 15 0,0
19.02.2017 03:00:00 7,3 5,9 14 7 19 10 ZZW 1025,0 - 0,0
19.02.2017 02:00:00 7,5 6,0 14 8 16 9 ZW 1024,7 - 0,0
19.02.2017 01:00:00 8,0 6,0 14 8 19 11 ZW 1024,4 15 0,0
19.02.2017 00:00:00 8,9 6,7 17 9 21 11 ZW 1024,1 - 0,0
18.02.2017 23:00:00 10,3 7,7 11 6 21 11 ZW 1024,0 - 0,0
18.02.2017 22:00:00 9,6 7,4 12 6 18 10 WZW 1023,7 - 0,0
18.02.2017 21:00:00 10,4 7,6 14 7 21 11 ZW 1023,1 - 0,0
18.02.2017 20:00:00 11,5 7,4 14 8 21 11 WZW 1022,7 - 0,0
18.02.2017 19:00:00 11,9 7,4 12 7 23 13 WZW 1022,5 - 0,0
18.02.2017 18:00:00 12,0 8,8 16 9 22 12 W 1022,0 - 0,0
18.02.2017 17:00:00 12,8 9,4 18 10 28 15 WNW 1021,6 - 0,0
18.02.2017 16:00:00 14,4 9,8 17 9 31 17 WNW 1021,5 10 0,0
18.02.2017 15:00:00 13,2 9,4 20 11 27 15 WNW 1021,6 - 0,0
18.02.2017 14:00:00 14,7 9,3 18 10 27 14 WNW 1022,0 - 0,0
18.02.2017 13:00:00 15,0 9,4 16 8 24 13 WNW 1022,5 - 0,0
18.02.2017 12:00:00 14,5 8,9 13 7 27 15 WNW 1022,8 - 0,0
18.02.2017 11:00:00 13,6 8,4 10 6 27 14 WNW 1022,6 - 0,0
18.02.2017 10:00:00 9,8 7,4 6 3 10 5 ZW 1022,6 - 0,0
18.02.2017 09:00:00 5,8 4,6 5 3 11 6 WZW 1022,4 - 0,0
18.02.2017 08:00:00 4,9 3,9 6 3 12 7 Z 1022,3 - 0,0
18.02.2017 07:00:00 5,1 4,1 5 3 10 6 Z 1022,4 8 0,0
18.02.2017 06:00:00 4,9 3,7 8 4 12 7 Z 1022,6 - 0,0
18.02.2017 05:00:00 5,4 4,0 6 3 9 5 ZZO 1022,7 - 0,0
18.02.2017 04:00:00 5,4 4,2 3 2 6 3 ZZW 1023,3 15 0,0
18.02.2017 03:00:00 6,0 4,8 6 3 11 6 ZZO 1023,6 - 0,0
18.02.2017 02:00:00 6,1 4,6 6 3 9 5 ZZO 1024,2 - 0,0
18.02.2017 01:00:00 6,2 4,8 8 5 14 8 W 1024,8 - 0,0
18.02.2017 00:00:00 7,3 5,8 4 2 7 4 WZW 1025,0 - 0,0
17.02.2017 23:00:00 7,4 5,0 5 3 7 4 WNW 1025,2 - 0,0
17.02.2017 22:00:00 8,9 6,2 6 4 13 7 ZZW 1025,3 - 0,0
17.02.2017 21:00:00 9,6 6,5 4 2 7 4 ZZO 1025,3 - 0,0
17.02.2017 20:00:00 10,8 6,5 5 3 13 7 O 1025,8 - 0,0
17.02.2017 19:00:00 12,4 7,1 5 3 10 5 OZO 1025,5 - 0,0
17.02.2017 18:00:00 14,0 7,5 6 3 8 5 OZO 1025,3 - 0,0
17.02.2017 17:00:00 15,2 8,4 2 1 9 5 O 1025,6 - 0,0
17.02.2017 16:00:00 15,4 9,1 5 3 9 5 NO 1025,9 20 0,0
17.02.2017 15:00:00 14,7 8,6 6 3 11 6 N 1026,6 - 0,0
17.02.2017 14:00:00 15,4 7,9 5 3 11 6 NNO 1027,3 - 0,0
17.02.2017 13:00:00 15,8 9,0 5 3 9 5 NO 1028,2 25 0,0
17.02.2017 12:00:00 13,8 8,2 4 2 9 5 N 1028,7 - 0,0
17.02.2017 11:00:00 13,5 7,7 3 2 8 4 NNO 1028,8 - 0,0
17.02.2017 10:00:00 10,8 8,2 4 2 5 3 WZW 1028,9 25 0,0
17.02.2017 09:00:00 6,4 5,2 0 0 6 3 N 1029,0 - 0,0
17.02.2017 08:00:00 5,4 4,0 3 2 9 5 NNW 1028,7 - 0,0
17.02.2017 07:00:00 6,0 4,8 8 5 10 5 ZO 1028,4 - 0,0
17.02.2017 06:00:00 5,6 4,2 4 2 13 7 W 1028,7 - 0,0
17.02.2017 05:00:00 6,3 4,6 7 4 11 6 ZZW 1028,8 - 0,0
17.02.2017 04:00:00 6,4 4,7 3 1 6 4 Z 1029,0 20 0,0
17.02.2017 03:00:00 6,6 4,6 0 0 6 4 N 1029,6 - 0,0
17.02.2017 02:00:00 7,6 5,2 4 2 10 5 ZO 1029,6 - 0,0
17.02.2017 01:00:00 8,5 6,3 3 2 18 10 O 1029,9 - 0,0
17.02.2017 00:00:00 8,9 6,3 5 3 14 8 ZW 1030,3 - 0,0
16.02.2017 23:00:00 9,4 5,4 11 6 14 7 ZZW 1030,5 - 0,0
16.02.2017 22:00:00 10,1 5,9 13 7 16 9 ZO 1030,4 - 0,0
16.02.2017 21:00:00 11,7 6,2 5 3 11 6 ZZW 1030,3 - 0,0
16.02.2017 20:00:00 13,3 5,7 8 4 26 14 ZZO 1030,2 - 0,0
16.02.2017 19:00:00 13,5 7,3 16 8 25 14 ONO 1030,0 - 0,0
16.02.2017 18:00:00 14,7 8,0 9 5 14 8 ONO 1029,5 - 0,0
16.02.2017 17:00:00 16,5 8,7 6 3 11 6 NNO 1029,5 - 0,0
16.02.2017 16:00:00 16,1 8,3 5 3 11 6 NNO 1029,5 20 0,0
16.02.2017 15:00:00 16,0 7,7 6 4 10 5 NNO 1029,8 - 0,0
16.02.2017 14:00:00 17,0 8,9 8 4 17 9 NO 1030,4 - 0,0
16.02.2017 13:00:00 17,9 8,7 14 8 29 16 NO 1031,1 - 0,0
16.02.2017 12:00:00 18,9 6,4 21 11 33 18 Z 1031,5 - 0,0
16.02.2017 11:00:00 17,9 6,4 19 10 34 18 Z 1031,5 - 0,0

tt = temperatuur
td = dauwpunt
ff = windsnelheid
fx = windstoten
dd = windrichting
ppp = luchtdruk
vv = zicht
rr = neerslag

Weerstations in de omgeving